Location: Utrecht
(52.0907°N, 5.1214°E)
Time: 12:35:23
(UTC+02:00)

ZACube-1 - Visible Passes

Search period start: 25 June 2022 00:00
Search period end: 05 July 2022 00:00
Orbit: 581 x 663 km, 97.6° (Epoch: 24 June)

Date Brightness Start Highest point End Pass type
(mag) Time Alt. Az. Time Alt. Az. Time Alt. Az.
26 Jun ? 04:20:13 10° NE 04:22:35 14° E 04:24:57 10° ESE visible
01 Jul ? 04:13:29 10° ENE 04:15:26 13° E 04:17:24 10° ESE visible
02 Jul ? 04:30:23 10° NE 04:33:28 18° E 04:36:35 10° SE visible
